When you browse on this site, cookies collect data to enhance your experience and personalize the content and advertising you see.
Visit our Privacy Policy to learn more. By continuing to use the site, you agree to this use of cookies and data.
  • In United Kingdom
  • List of Countries
  • For 7 days
  • Water Temperature
  • Weather Map
  • Weather Widgets
  • user-avatar
    Login

    Hourly Weather Botlikh

    Today, 25 August, Sunday

    Time Temperature Precipitation Wind Pressure Humidity
    00:00 +21°C° 0 mm 1 mps 666 mmHg 63%
    01:00 +21°C° 0.1 mm 1 mps 666 mmHg 63%
    02:00 +20°C° 0.1 mm 1 mps 666 mmHg 63%
    03:00 +20°C° 0.1 mm 1 mps 666 mmHg 63%
    04:00 +20°C° 0 mm 1 mps 666 mmHg 64%
    05:00 +20°C° 0 mm 1 mps 666 mmHg 65%
    06:00 +20°C° 0 mm 1 mps 666 mmHg 66%
    07:00 +21°C° 0 mm 1 mps 667 mmHg 61%
    08:00 +23°C° 0 mm 1 mps 668 mmHg 57%
    09:00 +25°C° 0 mm 1 mps 668 mmHg 52%
    10:00 +25°C° 0.2 mm 1 mps 668 mmHg 52%
    11:00 +26°C° 0.2 mm 1 mps 668 mmHg 52%
    12:00 +26°C° 0.2 mm 2 mps 668 mmHg 52%
    13:00 +26°C° 0.7 mm 2 mps 668 mmHg 54%
    14:00 +26°C° 0.7 mm 1 mps 667 mmHg 56%
    15:00 +26°C° 0.7 mm 1 mps 667 mmHg 58%
    16:00 +24°C° 1.1 mm 1 mps 667 mmHg 65%
    17:00 +23°C° 1.1 mm 1 mps 667 mmHg 73%
    18:00 +22°C° 1.1 mm 1 mps 666 mmHg 81%
    19:00 +21°C° 0.9 mm 1 mps 666 mmHg 85%
    20:00 +20°C° 0.9 mm 1 mps 667 mmHg 89%
    21:00 +19°C° 0.9 mm 1 mps 667 mmHg 92%
    22:00 +19°C° 0.5 mm 1 mps 667 mmHg 91%
    23:00 +17°C° 0.5 mm 0 mps 667 mmHg 90%

    Tomorrow, 26 August, Monday

    Time Temperature Precipitation Wind Pressure Humidity
    00:00 +17°C° 0.5 mm 0 mps 667 mmHg 88%
    01:00 +17°C° 0.1 mm 0 mps 667 mmHg 88%
    02:00 +16°C° 0.1 mm 0 mps 667 mmHg 88%
    03:00 +16°C° 0.1 mm 0 mps 667 mmHg 87%
    04:00 +16°C° 0.4 mm 0 mps 667 mmHg 89%
    05:00 +16°C° 0.4 mm 0 mps 668 mmHg 90%
    06:00 +18°C° 0.4 mm 1 mps 668 mmHg 92%
    07:00 +19°C° 0.3 mm 1 mps 668 mmHg 90%
    08:00 +19°C° 0.3 mm 1 mps 668 mmHg 87%
    09:00 +20°C° 0.3 mm 1 mps 669 mmHg 85%
    10:00 +20°C° 0.4 mm 2 mps 669 mmHg 83%
    11:00 +20°C° 0.4 mm 2 mps 669 mmHg 82%
    12:00 +21°C° 0.4 mm 3 mps 669 mmHg 80%
    13:00 +20°C° 0.4 mm 2 mps 669 mmHg 82%
    14:00 +20°C° 0.4 mm 2 mps 669 mmHg 84%
    15:00 +19°C° 0.4 mm 2 mps 669 mmHg 86%
    16:00 +19°C° 0.1 mm 2 mps 669 mmHg 88%
    17:00 +19°C° 0.1 mm 2 mps 669 mmHg 89%
    18:00 +19°C° 0.1 mm 1 mps 668 mmHg 91%
    19:00 +19°C° 0 mm 1 mps 669 mmHg 92%
    20:00 +18°C° 0 mm 1 mps 669 mmHg 93%
    21:00 +16°C° 0 mm 0 mps 669 mmHg 95%
    22:00 +16°C° 0 mm 0 mps 669 mmHg 95%
    23:00 +16°C° 0 mm 1 mps 669 mmHg 95%

    Day after tomorrow, 27 August, Tuesday

    Time Temperature Precipitation Wind Pressure Humidity
    00:00 +16°C° 0 mm 1 mps 669 mmHg 95%
    01:00 +16°C° 0 mm 1 mps 668 mmHg 94%
    02:00 +16°C° 0 mm 1 mps 668 mmHg 93%
    03:00 +15°C° 0 mm 1 mps 668 mmHg 92%
    04:00 +15°C° 0 mm 1 mps 668 mmHg 90%
    05:00 +15°C° 0 mm 2 mps 668 mmHg 88%
    06:00 +15°C° 0 mm 2 mps 668 mmHg 86%
    07:00 +17°C° 0 mm 2 mps 668 mmHg 78%
    08:00 +20°C° 0 mm 1 mps 668 mmHg 70%
    09:00 +22°C° 0 mm 1 mps 669 mmHg 63%
    10:00 +23°C° 0 mm 1 mps 669 mmHg 59%
    11:00 +25°C° 0 mm 2 mps 669 mmHg 56%
    12:00 +26°C° 0 mm 2 mps 669 mmHg 52%
    13:00 +25°C° 0.4 mm 2 mps 668 mmHg 57%
    14:00 +25°C° 0.4 mm 2 mps 668 mmHg 61%
    15:00 +25°C° 0.4 mm 2 mps 668 mmHg 65%
    16:00 +23°C° 0.7 mm 2 mps 667 mmHg 73%
    17:00 +22°C° 0.7 mm 1 mps 667 mmHg 80%
    18:00 +21°C° 0.7 mm 1 mps 666 mmHg 88%
    19:00 +20°C° 1.5 mm 1 mps 666 mmHg 89%
    20:00 +19°C° 1.5 mm 1 mps 666 mmHg 91%
    21:00 +17°C° 1.5 mm 2 mps 666 mmHg 92%
    22:00 +18°C° 0.8 mm 1 mps 666 mmHg 91%
    23:00 +18°C° 0.8 mm 1 mps 666 mmHg 90%

    28 August, Wednesday

    Time Temperature Precipitation Wind Pressure Humidity
    00:00 +16°C° 0.8 mm 1 mps 666 mmHg 89%
    01:00 +16°C° 0 mm 1 mps 665 mmHg 89%
    02:00 +16°C° 0 mm 1 mps 665 mmHg 88%
    03:00 +16°C° 0 mm 1 mps 665 mmHg 88%
    04:00 +16°C° 0 mm 1 mps 665 mmHg 88%
    05:00 +16°C° 0 mm 1 mps 665 mmHg 88%
    06:00 +16°C° 0 mm 1 mps 666 mmHg 88%
    07:00 +19°C° 0 mm 1 mps 666 mmHg 83%
    08:00 +20°C° 0 mm 1 mps 666 mmHg 78%
    09:00 +22°C° 0 mm 1 mps 666 mmHg 73%
    10:00 +23°C° 0.2 mm 2 mps 666 mmHg 70%
    11:00 +24°C° 0.2 mm 2 mps 666 mmHg 67%
    12:00 +24°C° 0.2 mm 3 mps 667 mmHg 64%
    13:00 +24°C° 0.5 mm 3 mps 666 mmHg 66%
    14:00 +24°C° 0.5 mm 2 mps 666 mmHg 68%
    15:00 +24°C° 0.5 mm 2 mps 666 mmHg 70%
    16:00 +23°C° 0.5 mm 2 mps 666 mmHg 74%
    17:00 +21°C° 0.5 mm 2 mps 665 mmHg 78%
    18:00 +20°C° 0.5 mm 2 mps 665 mmHg 83%
    19:00 +20°C° 0 mm 1 mps 666 mmHg 83%
    20:00 +20°C° 0 mm 1 mps 666 mmHg 83%
    21:00 +19°C° 0 mm 1 mps 666 mmHg 83%
    22:00 +19°C° 0 mm 1 mps 666 mmHg 84%
    23:00 +18°C° 0 mm 1 mps 666 mmHg 84%

    29 August, Thursday

    Time Temperature Precipitation Wind Pressure Humidity
    00:00 +16°C° 0 mm 1 mps 666 mmHg 85%
    01:00 +16°C° 0 mm 1 mps 666 mmHg 85%
    02:00 +16°C° 0 mm 1 mps 666 mmHg 85%
    03:00 +15°C° 0 mm 1 mps 666 mmHg 85%
    04:00 +15°C° 0 mm 1 mps 666 mmHg 86%
    05:00 +15°C° 0 mm 1 mps 666 mmHg 86%
    06:00 +16°C° 0 mm 1 mps 666 mmHg 87%
    07:00 +18°C° 0 mm 1 mps 667 mmHg 80%
    08:00 +20°C° 0 mm 1 mps 667 mmHg 74%
    09:00 +22°C° 0 mm 1 mps 668 mmHg 68%
    10:00 +23°C° 0 mm 1 mps 668 mmHg 67%
    11:00 +23°C° 0 mm 1 mps 668 mmHg 66%
    12:00 +24°C° 0 mm 2 mps 668 mmHg 65%
    13:00 +23°C° 0.1 mm 2 mps 667 mmHg 69%
    14:00 +21°C° 0.1 mm 2 mps 667 mmHg 72%
    15:00 +21°C° 0.1 mm 2 mps 666 mmHg 76%
    16:00 +20°C° 0 mm 2 mps 666 mmHg 79%
    17:00 +20°C° 0 mm 1 mps 666 mmHg 82%
    18:00 +19°C° 0 mm 1 mps 666 mmHg 86%
    19:00 +19°C° 0 mm 1 mps 666 mmHg 88%
    20:00 +18°C° 0 mm 1 mps 666 mmHg 91%
    21:00 +15°C° 0 mm 0 mps 666 mmHg 93%
    22:00 +16°C° 0 mm 1 mps 666 mmHg 93%
    23:00 +16°C° 0 mm 1 mps 666 mmHg 93%

    30 August, Friday

    Time Temperature Precipitation Wind Pressure Humidity
    00:00 +15°C° 0 mm 1 mps 666 mmHg 93%
    01:00 +15°C° 0 mm 1 mps 666 mmHg 93%
    02:00 +15°C° 0 mm 1 mps 666 mmHg 93%
    03:00 +15°C° 0 mm 1 mps 665 mmHg 94%
    04:00 +15°C° 0 mm 1 mps 665 mmHg 94%
    05:00 +15°C° 0 mm 1 mps 666 mmHg 93%
    06:00 +15°C° 0 mm 1 mps 666 mmHg 93%
    07:00 +16°C° 0.1 mm 1 mps 666 mmHg 89%
    08:00 +19°C° 0.1 mm 1 mps 666 mmHg 85%
    09:00 +20°C° 0.1 mm 1 mps 667 mmHg 81%
    10:00 +20°C° 0.1 mm 1 mps 667 mmHg 81%
    11:00 +19°C° 0.1 mm 2 mps 667 mmHg 81%
    12:00 +19°C° 0.1 mm 2 mps 667 mmHg 82%
    13:00 +18°C° 0.2 mm 2 mps 667 mmHg 85%
    14:00 +17°C° 0.2 mm 2 mps 666 mmHg 88%
    15:00 +16°C° 0.2 mm 1 mps 666 mmHg 91%
    16:00 +16°C° 0.2 mm 1 mps 666 mmHg 92%
    17:00 +16°C° 0.2 mm 1 mps 666 mmHg 94%
    18:00 +15°C° 0.2 mm 1 mps 666 mmHg 95%
    19:00 +15°C° 0.3 mm 1 mps 666 mmHg 95%
    20:00 +15°C° 0.3 mm 1 mps 666 mmHg 95%
    21:00 +15°C° 0.3 mm 2 mps 666 mmHg 95%
    22:00 +14°C° 0 mm 1 mps 666 mmHg 96%
    23:00 +14°C° 0 mm 1 mps 665 mmHg 96%
    Show more